WMT4SH LRSV-EGBB

Flight info

Callsign WMT4SH
Flight time N/A
Altitude 36000
Route HUMOR DCT REPTO DCT PITOK DCT RAPET DCT MASEK DCT ARPEG DCT BREDA DCT GALSO Q63 ERING L179 LAM L610 HEMEL
Aircraft A321/M-SDE3FGHIRWY/LB1

Departure

Time 2026-04-28 18:19
Airport Suceava Ștefan cel Mare International Airport (LRSV)

Arrival

Time N/A
Airport Birmingham Airport (EGBB)
Time Latitude Longitude Altitude Speed Heading
2026-04-28 17:58 47.68645 26.35106 1359 ft 0 kts 279°
2026-04-28 18:10 47.68645 26.35107 1358 ft 2 kts 279°
2026-04-28 18:10 47.68643 26.35143 1358 ft 4 kts 261°
2026-04-28 18:11 47.68652 26.35178 1357 ft 4 kts 223°
2026-04-28 18:11 47.68671 26.35191 1358 ft 2 kts 165°
2026-04-28 18:11 47.68673 26.35190 1358 ft 0 kts 163°
2026-04-28 18:14 47.68666 26.35194 1361 ft 2 kts 163°
2026-04-28 18:14 47.68646 26.35202 1359 ft 4 kts 163°
2026-04-28 18:14 47.68617 26.35216 1359 ft 5 kts 163°
2026-04-28 18:15 47.68577 26.35234 1359 ft 7 kts 163°
2026-04-28 18:15 47.68526 26.35258 1359 ft 8 kts 153°
2026-04-28 18:15 47.68520 26.35336 1359 ft 8 kts 75°
2026-04-28 18:15 47.68535 26.35420 1360 ft 8 kts 75°
2026-04-28 18:16 47.68524 26.35492 1360 ft 8 kts 135°
2026-04-28 18:16 47.68471 26.35523 1361 ft 10 kts 162°
2026-04-28 18:16 47.68342 26.35581 1360 ft 30 kts 161°
2026-04-28 18:16 47.68125 26.35678 1357 ft 33 kts 163°
2026-04-28 18:17 47.67914 26.35774 1358 ft 27 kts 162°
2026-04-28 18:17 47.67740 26.35853 1358 ft 21 kts 164°
2026-04-28 18:17 47.67659 26.35935 1359 ft 10 kts 134°
2026-04-28 18:17 47.67603 26.35957 1360 ft 8 kts 224°
2026-04-28 18:18 47.67617 26.35911 1360 ft 5 kts 337°
2026-04-28 18:18 47.67655 26.35890 1360 ft 7 kts 342°
2026-04-28 18:18 47.67712 26.35864 1359 ft 13 kts 343°
2026-04-28 18:18 47.67839 26.35807 1357 ft 55 kts 343°
2026-04-28 18:19 47.68800 26.35377 1365 ft 154 kts 343°
2026-04-28 18:19 47.69882 26.34887 2122 ft 163 kts 343°
2026-04-28 18:19 47.70945 26.34413 3063 ft 156 kts 342°
2026-04-28 18:19 47.72027 26.33933 3411 ft 172 kts 342°
2026-04-28 18:20 47.73249 26.33392 3631 ft 194 kts 342°
2026-04-28 18:20 47.74620 26.32787 3810 ft 217 kts 342°
2026-04-28 18:20 47.76059 26.31906 4288 ft 229 kts 321°
2026-04-28 18:20 47.76906 26.29962 5041 ft 235 kts 284°
2026-04-28 18:21 47.76740 26.27538 5771 ft 245 kts 246°
2026-04-28 18:21 47.75612 26.25567 6367 ft 263 kts 224°
2026-04-28 18:21 47.74210 26.23724 6925 ft 272 kts 224°
2026-04-28 18:21 47.72789 26.21852 7721 ft 273 kts 224°
2026-04-28 18:22 47.71369 26.19999 8639 ft 272 kts 224°
2026-04-28 18:22 47.69938 26.18154 9519 ft 272 kts 224°
2026-04-28 18:22 47.68503 26.16326 10354 ft 274 kts 224°
2026-04-28 18:22 47.66997 26.14413 10574 ft 297 kts 224°
2026-04-28 18:23 47.65371 26.12335 10782 ft 318 kts 224°
2026-04-28 18:23 47.63768 26.10093 11286 ft 323 kts 234°
2026-04-28 18:23 47.62682 26.07194 11877 ft 323 kts 255°
2026-04-28 18:23 47.62294 26.03913 12496 ft 325 kts 266°
2026-04-28 18:24 47.62093 26.00506 13142 ft 329 kts 267°
2026-04-28 18:24 47.61968 25.98312 13592 ft 331 kts 267°
2026-04-28 18:24 47.61694 25.93736 14439 ft 335 kts 267°
2026-04-28 18:24 47.61482 25.90279 15058 ft 338 kts 267°
2026-04-28 18:25 47.61267 25.86793 15659 ft 341 kts 267°
2026-04-28 18:25 47.61047 25.83276 16275 ft 344 kts 267°
2026-04-28 18:25 47.60825 25.79783 16870 ft 347 kts 267°
2026-04-28 18:26 47.60364 25.72607 18108 ft 353 kts 267°
2026-04-28 18:26 47.60126 25.68976 18690 ft 356 kts 267°
2026-04-28 18:26 47.59885 25.65320 19252 ft 358 kts 267°
2026-04-28 18:26 47.59639 25.61644 19829 ft 359 kts 267°
2026-04-28 18:27 47.59390 25.57954 20403 ft 360 kts 267°
2026-04-28 18:27 47.59130 25.54254 20986 ft 362 kts 267°
2026-04-28 18:27 47.58871 25.50541 21581 ft 363 kts 267°
2026-04-28 18:27 47.58610 25.46811 22152 ft 365 kts 267°
2026-04-28 18:28 47.58348 25.43113 22700 ft 366 kts 267°
2026-04-28 18:28 47.58082 25.39353 23234 ft 368 kts 268°
2026-04-28 18:28 47.58121 25.35589 23732 ft 366 kts 282°
2026-04-28 18:28 47.58706 25.31926 24170 ft 366 kts 285°
2026-04-28 18:29 47.59332 25.28265 24606 ft 367 kts 285°
2026-04-28 18:29 47.59966 25.24594 25041 ft 368 kts 285°
2026-04-28 18:29 47.60603 25.20915 25472 ft 369 kts 285°
2026-04-28 18:29 47.61240 25.17226 25914 ft 370 kts 285°
2026-04-28 18:30 47.61879 25.13523 26359 ft 371 kts 285°
2026-04-28 18:30 47.62086 25.12317 26513 ft 372 kts 285°
2026-04-28 18:30 47.63153 25.06073 27169 ft 374 kts 285°
2026-04-28 18:30 47.63782 25.02382 27587 ft 375 kts 285°
2026-04-28 18:31 47.64418 24.98632 27996 ft 376 kts 285°
2026-04-28 18:31 47.65055 24.94864 28409 ft 377 kts 285°
2026-04-28 18:31 47.65692 24.91085 28787 ft 379 kts 285°
2026-04-28 18:31 47.66332 24.87288 29167 ft 380 kts 285°
2026-04-28 18:32 47.66977 24.83477 29561 ft 381 kts 285°
2026-04-28 18:32 47.67623 24.79650 29855 ft 384 kts 285°
2026-04-28 18:32 47.68270 24.75801 30209 ft 386 kts 285°
2026-04-28 18:32 47.68914 24.71928 30521 ft 387 kts 285°
2026-04-28 18:33 47.69559 24.68041 30817 ft 389 kts 285°
2026-04-28 18:33 47.70197 24.64196 31200 ft 388 kts 285°
2026-04-28 18:33 47.70841 24.60312 31630 ft 387 kts 285°
2026-04-28 18:33 47.71482 24.56445 32057 ft 385 kts 285°
2026-04-28 18:34 47.72121 24.52584 32438 ft 384 kts 286°
2026-04-28 18:34 47.72758 24.48734 32828 ft 384 kts 285°
2026-04-28 18:34 47.73390 24.44893 33211 ft 382 kts 285°
2026-04-28 18:34 47.74019 24.41063 33597 ft 381 kts 285°
2026-04-28 18:35 47.74644 24.37241 33968 ft 380 kts 285°
2026-04-28 18:35 47.75266 24.33433 34311 ft 379 kts 285°
2026-04-28 18:35 47.75880 24.29679 34563 ft 379 kts 285°
2026-04-28 18:35 47.76503 24.25866 34804 ft 380 kts 285°
2026-04-28 18:36 47.77127 24.22040 35035 ft 381 kts 285°
2026-04-28 18:36 47.77750 24.18205 35249 ft 383 kts 285°
2026-04-28 18:36 47.78372 24.14356 35475 ft 384 kts 285°
2026-04-28 18:36 47.78992 24.10490 35702 ft 385 kts 285°
2026-04-28 18:37 47.79612 24.06612 35916 ft 386 kts 285°
2026-04-28 18:37 47.80235 24.02724 36086 ft 388 kts 285°
2026-04-28 18:37 47.80860 23.98829 36124 ft 387 kts 285°
2026-04-28 18:38 47.82099 23.91095 36130 ft 387 kts 285°
2026-04-28 18:38 47.83337 23.83320 36131 ft 385 kts 285°
2026-04-28 18:39 47.84555 23.75559 36134 ft 385 kts 285°
2026-04-28 18:39 47.85703 23.67780 36134 ft 387 kts 281°
2026-04-28 18:40 47.86426 23.59825 36139 ft 388 kts 279°
2026-04-28 18:40 47.87117 23.51905 36142 ft 388 kts 279°
2026-04-28 18:41 47.87810 23.43923 36143 ft 389 kts 280°
2026-04-28 18:41 47.88508 23.35932 36145 ft 389 kts 279°
2026-04-28 18:42 47.89206 23.27943 36149 ft 389 kts 279°
2026-04-28 18:42 47.89905 23.19944 36151 ft 389 kts 279°
2026-04-28 18:43 47.90597 23.11997 36149 ft 389 kts 279°
2026-04-28 18:43 47.91180 23.05290 36157 ft 389 kts 279°
2026-04-28 18:44 47.91982 22.95983 36146 ft 390 kts 279°
2026-04-28 18:44 47.93177 22.84004 36153 ft 388 kts 285°
2026-04-28 18:45 47.94260 22.77516 36161 ft 388 kts 286°
2026-04-28 18:45 47.95828 22.68469 36166 ft 387 kts 286°
2026-04-28 18:46 47.97162 22.60681 36158 ft 387 kts 285°
2026-04-28 18:46 47.98254 22.54207 36173 ft 387 kts 285°
2026-04-28 18:47 47.99558 22.46418 36175 ft 387 kts 285°
2026-04-28 18:47 48.01068 22.37367 36178 ft 386 kts 285°
2026-04-28 18:48 48.02361 22.29578 36169 ft 386 kts 285°
2026-04-28 18:48 48.03438 22.23110 36179 ft 386 kts 285°
2026-04-28 18:49 48.04509 22.16634 36180 ft 386 kts 285°
2026-04-28 18:49 48.06202 22.06252 36191 ft 386 kts 285°
2026-04-28 18:50 48.07474 21.98456 36196 ft 386 kts 285°
2026-04-28 18:50 48.08529 21.91973 36198 ft 386 kts 285°
2026-04-28 18:51 48.09792 21.84167 36202 ft 386 kts 285°
2026-04-28 18:51 48.11051 21.76360 36215 ft 386 kts 285°
2026-04-28 18:52 48.12295 21.68571 36217 ft 384 kts 285°
2026-04-28 18:52 48.13534 21.60793 36201 ft 384 kts 285°
2026-04-28 18:53 48.14754 21.53077 36189 ft 383 kts 285°
2026-04-28 18:53 48.15983 21.45310 36174 ft 383 kts 285°
2026-04-28 18:54 48.17206 21.37554 36178 ft 382 kts 286°
2026-04-28 18:54 48.18420 21.29800 36179 ft 382 kts 286°
2026-04-28 18:55 48.19620 21.22103 36178 ft 382 kts 286°
2026-04-28 18:55 48.20823 21.14351 36179 ft 382 kts 285°
2026-04-28 18:56 48.22019 21.06599 36182 ft 382 kts 285°
2026-04-28 18:56 48.23209 20.98839 36146 ft 382 kts 285°
2026-04-28 18:57 48.24390 20.91131 36153 ft 382 kts 285°
2026-04-28 18:57 48.25569 20.83358 36160 ft 382 kts 285°
2026-04-28 18:58 48.26746 20.75579 36160 ft 382 kts 285°
2026-04-28 18:58 48.27924 20.67794 36165 ft 383 kts 285°
2026-04-28 18:59 48.29079 20.60053 36162 ft 383 kts 285°
2026-04-28 18:59 48.30245 20.52252 36144 ft 383 kts 285°
2026-04-28 19:00 48.31406 20.44424 36138 ft 384 kts 285°
2026-04-28 19:00 48.32654 20.36631 36139 ft 383 kts 291°
2026-04-28 19:01 48.34674 20.29235 36139 ft 383 kts 294°
2026-04-28 19:01 48.36693 20.21890 36141 ft 383 kts 293°
2026-04-28 19:02 48.38718 20.14482 36113 ft 383 kts 294°
2026-04-28 19:02 48.40751 20.07054 36116 ft 384 kts 293°